N7WWK-1 Weather Reports


Display with metric or nautical units.
time (UTC)temp
F
wind
direction
speed
MPH
gust
MPH
rain 1hr
in
rain 24hr
in
rain mn
in
humidity
%
barometer
mb
20260902141214 85 103 2.0 8.0 0.00 0.00 0.00 85 1015.2
20260902140005 85 74 2.0 6.0 0.00 0.00 0.00 87 1015.2
20260902135004 85 324 2.0 5.0 0.00 0.00 0.00 87 1015.1
20260902134005 84 330 2.0 7.0 0.00 0.00 0.00 88 1015.3
20260902133005 84 41 1.0 4.0 0.00 0.00 0.00 87 1015.3
20260902132004 83 95 1.0 3.0 0.00 0.00 0.00 88 1015.3
20260902131215 83 101 1.0 2.0 0.00 0.00 0.00 88 1015.1
20260902130005 82 94 1.0 2.0 0.00 0.00 0.00 89 1015.4
20260902125004 82 104 1.0 3.0 0.00 0.00 0.00 91 1015.4
20260902124218 81 16 1.0 3.0 0.00 0.00 0.00 93 1015.4
20260902123004 80 348 1.0 3.0 0.00 0.00 0.00 96 1015.0
20260902122005 79 341 1.0 3.0 0.00 0.00 0.00 97 1015.3
20260902121005 79 347 1.0 2.0 0.00 0.00 0.00 98 1015.0
20260902120005 78 348 2.0 4.0 0.00 0.00 0.00 98 1015.2
20260902115218 78 349 1.0 3.0 0.00 0.00 0.00 99 1015.0
20260902114005 77 346 1.0 3.0 0.00 0.00 0.00 99 1014.8
20260902113005 77 334 0.0 1.0 0.00 0.00 0.00 99 1015.0
20260902112005 77 345 1.0 2.0 0.00 0.00 0.00 99 1015.2
20260902111216 77 341 0.0 2.0 0.00 0.00 0.00 99 1014.9
20260902110007 77 334 0.0 2.0 0.00 0.00 0.00 99 1015.1
20260902105005 77 345 0.0 2.0 0.00 0.00 0.00 99 1015.0
20260902104005 77 338 0.0 2.0 0.00 0.00 0.00 99 1014.5
20260902103005 77 344 0.0 2.0 0.00 0.00 0.00 99 1014.7
20260902102004 77 342 0.0 1.0 0.00 0.00 0.00 99 1014.6
20260902101217 77 343 0.0 1.0 0.00 0.00 0.00 99 1014.5
20260902100005 77 346 0.0 2.0 0.00 0.00 0.00 99 1014.5
20260902095004 77 352 0.0 2.0 0.00 0.00 0.00 99 1014.2
20260902094005 77 346 0.0 2.0 0.00 0.00 0.00 99 1014.4
20260902093004 77 349 0.0 2.0 0.00 0.00 0.00 99 1014.0
20260902092005 77 345 0.0 2.0 0.00 0.00 0.00 99 1013.9
20260902091005 77 341 0.0 1.0 0.00 0.00 0.00 99 1014.2
20260902090005 77 338 0.0 2.0 0.00 0.00 0.00 99 1014.0
20260902085005 77 345 0.0 1.0 0.00 0.00 0.00 99 1014.1
20260902084005 77 345 0.0 1.0 0.00 0.00 0.00 99 1013.9
20260902083005 77 347 0.0 1.0 0.00 0.00 0.00 99 1014.0
20260902082004 76 347 0.0 0.0 0.00 0.00 0.00 99 1013.7
20260902081005 77 346 0.0 1.0 0.00 0.00 0.00 98 1014.1
20260902080219 77 344 0.0 1.0 0.00 0.00 0.00 98 1014.0
20260902075215 77 343 0.0 2.0 0.00 0.00 0.00 98 1013.9
20260902074005 77 351 0.0 1.0 0.00 0.00 0.00 98 1014.1
20260902073004 77 350 0.0 2.0 0.00 0.00 0.00 98 1014.0
20260902072005 77 349 0.0 1.0 0.00 0.00 0.00 98 1014.2
20260902071005 77 348 0.0 1.0 0.00 0.00 0.00 98 1014.1
20260902070006 77 0 0.0 0.0 0.00 0.00 0.00 98 1014.2
20260902065005 77 0 0.0 0.0 0.00 0.00 0.00 97 1014.1
20260902064004 77 0 0.0 0.0 0.00 0.00 0.00 97 1014.4
20260902063005 77 0 0.0 0.0 0.00 0.00 0.00 97 1014.2
20260902062218 77 0 0.0 0.0 0.00 0.00 0.00 97 1014.3
20260902061005 77 0 0.0 0.0 0.00 0.00 0.00 97 1014.5
20260902060005 77 0 0.0 0.0 0.00 0.00 0.00 97 1014.3
20260902055004 77 2 0.0 2.0 0.00 0.00 0.00 96 1014.4
20260902054005 77 5 0.0 1.0 0.00 0.00 0.00 96 1014.3
20260902053005 78 0 0.0 0.0 0.00 0.00 0.00 96 1014.2
20260902052004 78 8 0.0 1.0 0.00 0.00 0.00 96 1014.3
20260902051215 78 0 0.0 0.0 0.00 0.00 0.00 96 1014.5
20260902050008 78 0 0.0 0.0 0.00 0.00 0.00 96 1014.6
20260902045005 78 11 0.0 1.0 0.00 0.00 0.00 95 1014.7
20260902044005 79 13 0.0 1.0 0.00 0.00 0.00 95 1014.5
20260902043219 79 15 0.0 1.0 0.00 0.00 0.00 95 1014.6
20260902042005 79 50 0.0 2.0 0.00 0.00 0.00 95 1014.7
20260902041004 79 0 0.0 0.0 0.00 0.00 0.00 95 1014.8
20260902040027 80 0 0.0 0.0 0.00 0.00 0.00 95 1014.9
20260902035217 80 0 0.0 0.0 0.00 0.00 0.00 95 1015.1
20260902034004 80 0 0.0 0.0 0.00 0.00 0.00 95 1014.9
20260902033214 80 0 0.0 0.0 0.00 0.00 0.00 95 1015.2
20260902032004 80 0 0.0 0.0 0.00 0.00 0.00 94 1015.1
20260902031005 80 77 0.0 2.0 0.00 0.00 0.00 94 1015.1
20260902030005 80 80 0.0 1.0 0.00 0.00 0.00 94 1015.3
20260902025005 80 72 1.0 2.0 0.00 0.00 0.00 94 1015.4
20260902024005 80 75 0.0 3.0 0.00 0.00 0.00 94 1015.5
20260902023004 80 75 0.0 2.0 0.00 0.00 0.00 93 1015.5
20260902022005 80 76 1.0 3.0 0.00 0.00 0.00 93 1015.4
20260902021004 81 77 1.0 2.0 0.00 0.00 0.00 93 1015.2
20260902020004 81 78 1.0 4.0 0.00 0.00 0.00 93 1015.4
20260902015005 81 78 1.0 4.0 0.00 0.00 0.00 92 1015.2
20260902014005 81 79 1.0 3.0 0.00 0.00 0.00 92 1015.3
20260902013005 81 76 0.0 2.0 0.00 0.00 0.00 91 1015.1
20260902012005 81 86 1.0 3.0 0.00 0.00 0.00 91 1015.1
20260902011005 81 80 1.0 3.0 0.00 0.00 0.00 90 1014.8
20260902010005 81 74 1.0 2.0 0.00 0.00 0.00 90 1014.7
20260902005005 82 73 1.0 3.0 0.00 0.00 0.00 90 1014.8
20260902004005 82 73 1.0 4.0 0.00 0.00 0.00 89 1014.7
20260902003006 82 69 1.0 3.0 0.00 0.00 0.00 88 1014.9
20260902002217 82 72 1.0 6.0 0.00 0.00 0.00 87 1014.7
20260902001005 82 73 1.0 4.0 0.00 0.00 0.00 87 1014.7
20260902000219 82 69 1.0 4.0 0.00 0.00 0.00 87 1015.0
20260901235005 82 71 1.0 4.0 0.00 0.00 0.00 86 1014.9
20260901234004 83 78 2.0 7.0 0.00 0.00 0.00 86 1014.6
20260901233217 83 70 2.0 7.0 0.00 0.00 0.00 85 1014.8
20260901232005 83 75 2.0 6.0 0.00 0.00 0.00 85 1014.8
20260901231004 83 80 2.0 6.0 0.00 0.00 0.00 84 1014.7
20260901230005 84 80 2.0 8.0 0.00 0.00 0.00 82 1014.8
20260901225216 84 78 3.0 8.0 0.00 0.00 0.00 83 1014.8
20260901224005 84 81 2.0 5.0 0.00 0.00 0.00 83 1014.5
20260901223005 84 76 3.0 11.0 0.00 0.00 0.00 83 1014.4
20260901222004 84 77 2.0 5.0 0.00 0.00 0.00 83 1014.3
20260901221005 84 88 2.0 8.0 0.00 0.00 0.00 83 1014.2
20260901220005 84 80 2.0 7.0 0.00 0.00 0.00 81 1014.3
20260901215005 84 84 2.0 7.0 0.00 0.00 0.00 79 1014.2
20260901214004 84 76 2.0 6.0 0.00 0.00 0.00 79 1014.3
20260901213004 85 73 2.0 6.0 0.00 0.00 0.00 80 1014.3
20260901212005 85 75 3.0 9.0 0.00 0.00 0.00 80 1014.2
20260901211005 85 76 3.0 8.0 0.00 0.00 0.00 82 1014.3
20260901210005 85 84 3.0 9.0 0.00 0.00 0.00 84 1014.2
20260901205005 85 83 2.0 6.0 0.00 0.00 0.00 82 1014.3
20260901204004 85 83 3.0 10.0 0.00 0.00 0.00 80 1014.6
20260901203005 85 74 3.0 7.0 0.00 0.00 0.00 80 1014.5
20260901202005 86 84 3.0 9.0 0.00 0.00 0.00 80 1014.5
20260901201215 86 78 3.0 9.0 0.00 0.00 0.00 79 1014.6
20260901200005 85 76 4.0 10.0 0.00 0.00 0.00 79 1014.8
20260901195005 86 81 2.0 7.0 0.00 0.00 0.00 78 1014.8
20260901194005 87 80 2.0 8.0 0.00 0.00 0.00 77 1014.9
20260901193005 87 78 2.0 6.0 0.00 0.00 0.00 75 1014.9
20260901192004 87 76 3.0 9.0 0.00 0.00 0.00 74 1014.5
20260901191216 87 73 2.0 8.0 0.00 0.00 0.00 73 1014.7
20260901190005 87 70 4.0 10.0 0.00 0.00 0.00 75 1014.6
20260901185218 87 73 3.0 10.0 0.00 0.00 0.00 74 1014.4
20260901184004 87 78 2.0 6.0 0.00 0.00 0.00 77 1014.6
20260901183004 87 80 3.0 9.0 0.00 0.00 0.00 77 1014.9
20260901182005 88 83 2.0 5.0 0.00 0.00 0.00 74 1015.3
20260901181005 88 80 4.0 11.0 0.00 0.00 0.00 74 1015.2
20260901180005 87 88 2.0 6.0 0.00 0.00 0.00 77 1015.2
20260901175005 87 81 2.0 7.0 0.00 0.00 0.00 77 1015.3
20260901174006 88 85 3.0 8.0 0.00 0.00 0.00 77 1015.2
20260901173005 90 48 1.0 3.0 0.00 0.00 0.00 73 1015.7
20260901172004 88 97 1.0 4.0 0.00 0.00 0.00 76 1015.7
20260901171004 85 77 1.0 6.0 0.00 0.00 0.00 79 1015.8
20260901170005 84 92 2.0 8.0 0.00 0.00 0.00 82 1015.8
20260901165214 84 75 4.0 13.0 0.00 0.00 0.00 81 1016.0
20260901164005 85 77 2.0 7.0 0.00 0.00 0.00 83 1016.1
20260901163004 85 74 2.0 8.0 0.00 0.00 0.00 83 1016.0
20260901162005 85 68 2.0 3.0 0.00 0.00 0.00 83 1016.0
20260901161004 84 82 2.0 5.0 0.00 0.00 0.00 83 1016.3
20260901160005 86 76 4.0 11.0 0.00 0.00 0.00 80 1016.3
20260901155005 89 338 2.0 6.0 0.00 0.00 0.00 77 1016.1
20260901154004 88 329 2.0 4.0 0.00 0.00 0.00 77 1016.2
20260901153005 87 346 2.0 6.0 0.00 0.00 0.00 78 1016.3
20260901152005 88 349 1.0 7.0 0.00 0.00 0.00 77 1016.2
20260901151005 86 336 2.0 4.0 0.00 0.00 0.00 79 1016.3
20260901150006 88 353 2.0 7.0 0.00 0.00 0.00 78 1016.1
20260901145004 87 352 1.0 6.0 0.00 0.00 0.00 78 1016.1
20260901144005 87 58 1.0 4.0 0.00 0.00 0.00 80 1016.2
20260901143005 85 90 1.0 6.0 0.00 0.00 0.00 82 1016.1
20260901142005 85 94 1.0 2.0 0.00 0.00 0.00 84 1015.9